• Join FlightAware (Why Join?)
  • Login
  • US Flag 
04:18AM EDT


 

Airport Tracker/Info


-or-


 

Live Flight TrackerFlight Track Log ✈ N618JB ✈ 15-Apr-2013 ✈ KSFO - KLGB

Flight Track Log - Related Links

Times and Time Zones

All times are in EDT time to prevent confusion due to time zone crossing. See the N618JB flight status page for this flight to view local times or setup timezone preferences in your user account.

Time Position Orientation Groundspeed Altitude Reporting Facility
EDT Latitude Longitude Course Direction KTS MPH feet Rate Location/Type
06:34PM 37.6333 -122.4000 187° South 125 144 2,300  Level Northern Cal TRACON
06:35PM 37.6667 -122.4667 302° West 227 261 4,000 2,520 Climbing Northern Cal TRACON
06:36PM 37.4117 -122.5064 188° South  Level FlightAware Approximate
06:36PM 37.6667 -122.5500 270° West 272 313 7,600  Level Northern Cal TRACON
06:37PM 37.2995 -122.5217 185° South  Level FlightAware Approximate
06:37PM 37.5833 -122.6000 205° Southwest 298 343 10,900  Level Northern Cal TRACON
06:38PM 37.1870 -122.5330 185° South  Level FlightAware Approximate
06:38PM 37.5517 -122.6200 207° Southwest 299 344 11,600  Level Oakland Center
06:39PM 37.0748 -122.5488 187° South  Level FlightAware Approximate
06:39PM 37.4469 -122.6225 181° South 381 438 13,600  Level Oakland Center
06:40PM 37.3317 -122.6100 175° South 416 479 15,600 2,100 Climbing Oakland Center
06:41PM 37.2117 -122.5961 175° South 428 493 18,000 2,340 Climbing Oakland Center
06:42PM 37.0928 -122.5531 164° South 457 526 20,400 1,980 Climbing Oakland Center
06:43PM 36.9875 -122.4486 142° Southeast 481 554 22,100 1,800 Climbing Oakland Center
06:44PM 36.8550 -122.3261 143° Southeast 495 570 24,100 1,740 Climbing Oakland Center
06:45PM 36.7417 -122.2222 144° Southeast 504 580 25,700 1,560 Climbing Oakland Center
06:46PM 36.6278 -122.1183 144° Southeast 508 585 27,400 1,620 Climbing Oakland Center
06:47PM 36.5133 -122.0167 144° Southeast 508 585 29,100 1,560 Climbing Oakland Center
06:48PM 36.4003 -121.9100 143° Southeast 510 587 30,600 1,680 Climbing Oakland Center
06:49PM 36.2764 -121.8011 145° Southeast 502 578 32,600 1,140 Climbing Oakland Center
06:50PM 36.1678 -121.7008 143° Southeast 492 566 33,000 180 Climbing Oakland Center
06:51PM 36.0578 -121.6011 144° Southeast 490 564 33,000  Level Oakland Center
06:52PM 35.9450 -121.5006 144° Southeast 498 573 33,000  Level Oakland Center
06:53PM 35.8328 -121.4019 145° Southeast 498 573 33,000  Level Oakland Center
06:54PM 35.7236 -121.3019 143° Southeast 493 567 33,000  Level Oakland Center
06:55PM 35.6114 -121.2036 145° Southeast 495 570 33,000  Level Oakland Center
06:56PM 35.5022 -121.1061 144° Southeast 491 565 33,000 -60 Level Oakland Center
06:57PM 35.3658 -120.9981 147° Southeast 489 563 32,900  Descending Oakland Center
06:58PM 35.2589 -120.9150 148° Southeast 488 562 33,000  Climbing Los Angeles Center
06:59PM 35.1464 -120.8264 147° Southeast 484 557 33,000  Level Los Angeles Center
07:00PM 35.0097 -120.7211 148° Southeast 484 557 33,000  Level Los Angeles Center
07:01PM 34.8978 -120.6328 147° Southeast 480 552 33,000 -60 Level Los Angeles Center
07:02PM 34.7844 -120.5464 148° Southeast 475 547 32,900 -60 Descending Los Angeles Center
07:03PM 34.6739 -120.4606 147° Southeast 474 545 32,900  Level Los Angeles Center
07:04PM 34.5644 -120.3775 148° Southeast 468 539 33,000  Climbing Los Angeles Center
07:05PM 34.4294 -120.2753 148° Southeast 474 545 33,000 -300 Level Los Angeles Center
07:06PM 34.3206 -120.1892 147° Southeast 468 539 32,500 -1,020 Descending Los Angeles Center
07:07PM 34.2244 -120.0719 135° Southeast 471 542 30,900 -1,800 Descending Los Angeles Center
07:08PM 34.1483 -119.9389 125° Southeast 481 554 28,900 -1,980 Descending Los Angeles Center
07:10PM 34.0842 -119.8019 119° Southeast 473 544 26,900 -1,980 Descending Los Angeles Center
07:11PM 34.0175 -119.6708 122° Southeast 464 534 24,900 -1,980 Descending Los Angeles Center
07:12PM 33.9514 -119.5419 122° Southeast 455 524 22,900 -2,040 Descending Los Angeles Center
07:13PM 33.8886 -119.4156 121° Southeast 446 513 20,800 -2,280 Descending Los Angeles Center
07:14PM 33.8128 -119.2642 121° Southeast 437 503 18,300 -2,280 Descending Los Angeles Center
07:15PM 33.7511 -119.1428 121° Southeast 428 493 16,100 -2,160 Descending Los Angeles Center
07:16PM 33.6894 -119.0244 122° Southeast 419 482 13,900 -2,040 Descending Los Angeles Center
07:17PM 33.6300 -118.9092 122° Southeast 410 472 11,900 -1,620 Descending Los Angeles Center
07:18PM 33.6089 -118.7889 102° East 372 428 10,600 -1,200 Descending Los Angeles Center
07:19PM 33.5997 -118.6519 95° East 342 394 9,500 -1,260 Descending Los Angeles Center
07:20PM 33.5919 -118.5469 95° East 323 372 8,000 -1,260 Descending Los Angeles Center
07:21PM 33.5856 -118.4444 94° East 313 360 6,900 -1,440 Descending Los Angeles Center
07:22PM 33.5831 -118.3481 92° East 303 349 5,100 -1,200 Descending Los Angeles Center
07:24PM 33.6000 -118.2000 82° East 246 283 3,800 -840 Descending Southern California TRACON
07:24PM 33.6031 -118.1633 84° East 248 285 3,500 -420 Descending Los Angeles Center
07:25PM 33.6022 -118.0989 91° East 207 238 3,200 -300 Descending Los Angeles Center
07:26PM 33.6053 -118.0433 86° East 183 211 3,000 -180 Descending Los Angeles Center
07:27PM 33.6333 -118.0333 17° North 189 217 3,000 -120 Level Southern California TRACON
07:28PM 33.6667 -118.0000 40° Northeast 166 191 2,900 -60 Descending Southern California TRACON
07:29PM 33.7272 -117.9922 North 173 199 2,900 -120 Level Los Angeles Center
07:29PM 33.7333 -118.0167 287° West 158 182 2,700 -840 Descending Southern California TRACON
07:31PM 33.7681 -118.0883 300° West 165 190 1,200 -840 Descending Los Angeles Center
07:32PM 33.7953 -118.1219 314° West 154 177 500 -720 Descending Los Angeles Center